Regional Weather Roundup
Issued by NWS

Home | Current Version | Previous Version | Graphics & Text | Print | Product List | Glossary Off
Versions: 1 2 3 4 5 6 7 8 9 10 11 12 13 14 15 16 17 18 19 20 21 22 23 24 25 26 27 28 29 30 31 32 33 34 35 36 37 38 39 40 41 42 43 44 45 46 47 48 49 50

000
ASUS43 KMKX 070511
RWRWI

WISCONSIN REGIONAL WEATHER ROUNDUP
NATIONAL WEATHER SERVICE MILWAUKEE/SULLIVAN WI
1200 AM CDT THU MAY 07 2015

NOTE: "FAIR" INDICATES FEW OR NO CLOUDS BELOW 12,000 FEET WITH NO
SIGNIFICANT WEATHER AND/OR OBSTRUCTIONS TO VISIBILITY.

WIZ001-002-006>008-014>016-023>028-070600-
NORTHWEST WISCONSIN

CITY           SKY/WX    TMP DP  RH WIND       PRES   REMARKS
SUPERIOR ARPT  CLOUDY    42  37  80 NE7       29.93F
ASHLAND        CLOUDY    54  53  97 CALM      29.95F
HAYWARD        CLOUDY    63  59  87 SE15      29.94F
SIREN          MOCLDY    65  58  76 S9        29.90S
CUMBERLAND     CLOUDY    61  57  88 SE8       29.93S
RICE LAKE      CLOUDY    63  59  88 SE12      29.95S
CHETEK         CLOUDY    62  60  94 E9        29.94F
LADYSMITH      CLOUDY    62  60  93 SE9       29.99F
EAU CLAIRE     CLOUDY    63  59  87 SE8       29.94F
MENOMONIE      MOCLDY    63  61  94 SE8       29.93S
NEW RICHMOND   MOCLDY    63  59  88 SE8       29.90S
OSCEOLA        MOCLDY    65  60  83 SE13      29.91S
$$

WIZ003>005-009-010-017-018-070600-
NORTH CENTRAL WISCONSIN

CITY           SKY/WX    TMP DP  RH WIND       PRES   REMARKS
MANITOWISH WTR MOCLDY    61  56  85 S7        30.03R
ARBOR VITAE    CLOUDY    62  56  82 S6        30.04R
WOODRUFF       CLOUDY    62  56  82 S6        30.04R
RHINELANDER    PTCLDY    58  54  86 SE7       30.05S
EAGLE RIVER    CLOUDY    59  52  79 SE6       30.04F
LAND O LAKES   PTCLDY    59  53  80 SE5       30.05F
PHILLIPS       LGT RAIN  61  58  92 SE6       30.01F
TOMAHAWK       CLOUDY    59  55  88 CALM      30.06S
MEDFORD        CLOUDY    61  58  90 SE7       30.02F
MERRILL        MOCLDY    60  57  91 W5        30.05S
$$

WIZ029-030-035-036-043>047-070600-
CENTRAL WISCONSIN

CITY           SKY/WX    TMP DP  RH WIND       PRES   REMARKS
WAUSAU         MOCLDY    60  56  86 SE8       30.03R
MOSINEE        MOCLDY    59  55  88 SE7       30.05S
MARSHFIELD     MOCLDY    63  57  81 E7        30.02F
STEVENS POINT  MOCLDY    59  55  85 SE5       30.05R
WAUPACA        PTCLDY    60  55  86 CALM      30.05S HAZE
WAUTOMA        PTCLDY    57  57 100 CALM      30.05R
WISC RAPIDS    PTCLDY    63  56  78 SE6       30.04S
CAMP DOUGLAS   MOCLDY    65  65 100 SE8       30.00S
$$

WIZ011>013-019>022-031-037>040-048>050-070600-
NORTHEAST WISCONSIN

CITY           SKY/WX    TMP DP  RH WIND       PRES   REMARKS
ANTIGO         PTCLDY    55  53  94 SE12      30.06S
SHAWANO        PTCLDY    56  53  89 E5        30.07S FOG
OCONTO         MOCLDY    50  43  76 CALM      30.08F
STURGEON BAY   MOCLDY    48  36  61 SE9       30.11S
GREEN BAY      PTCLDY    52  50  93 E5        30.08S FOG
MANITOWOC        N/A    N/A N/A N/A MISG        N/A
APPLETON       PTCLDY    55  52  88 E6        30.06S
CLINTONVILLE   PTCLDY    55  54  94 E5        30.06S FOG
OSHKOSH        PTCLDY    57  53  86 S5        30.05S
$$

WIZ032>034-041-042-053>061-070600-
SOUTHWEST WISCONSIN

CITY           SKY/WX    TMP DP  RH WIND       PRES   REMARKS
LA CROSSE      CLOUDY    65  60  84 CALM      29.95S
SPARTA         CLOUDY    63  60  92 E3        29.99S
VIROQUA        CLOUDY    65  58  79 SE8       30.00S
BOSCOBEL       CLOUDY    65  59  81 N5        29.99S
PRAIRIE DU CHI CLOUDY    65  57  76 E6        29.97S
PLATTEVILLE    CLOUDY    64  60  85 E9        30.00S
$$

WIZ056-057-062-063-064-067-068-070600-
SOUTH CENTRAL WISCONSIN

CITY           SKY/WX    TMP DP  RH WIND       PRES   REMARKS
REEDSBURG      CLOUDY    65  61  86 E5        30.00F
BARABOO/DELLS  CLOUDY    63  58  84 E3        30.02F HAZE
LONE ROCK      CLOUDY    66  60  81 E7        30.00S
MINERAL POINT  CLOUDY    66  59  77 SE5       30.02S
MADISON        PTCLDY    61  56  83 SE8       30.04R HAZE
MIDDLETON      MOCLDY    63  59  86 CALM      30.04S
WATERTOWN      CLEAR     57  57 100 E7        30.04F FOG
MONROE         PTCLDY    63  59  88 SE8       30.04R FOG
JANESVILLE     PTCLDY    63  57  82 SE5       30.04R HAZE
$$

WIZ051-052-058>065-066-070>072-070600-
SOUTHEAST WISCONSIN

CITY           SKY/WX    TMP DP  RH WIND       PRES   REMARKS
MILWAUKEE      FOG       46  45  96 CALM      30.09F VSB 1/8
WAUKESHA       PTCLDY    46  46 100 CALM      30.09S FOG
MILWAUKEE/TIMM FOG       46  45  93 CALM      30.09F VSB 1/4
RACINE         FOG       46  44  93 CALM      30.09F VSB 1/2
BURLINGTON     PTCLDY    51  50  98 E5        30.08R FOG
KENOSHA        FOG       47  46  97 E3        30.08S VSB 1/4
FOND DU LAC    PTCLDY    56  52  86 SE9       30.05S FOG
SHEBOYGAN      FOG       45  44  97 CALM      30.09S VSB 1/2
WEST BEND      FOG       50  48  93 SE3       30.08S VSB 1/4
JUNEAU         CLEAR     58  55  89 E9        30.06S FOG
$$

LSZ147-162-070600-
LAKE SUPERIOR

STATION/POSITION TIME  TEMP    WIND        PRES    WAVE
                       AIR SEA DIR/SP/G            HT/PER
                 (UTC) (F)     (DEG/KT/KT) (MB)    (FT/S)
W MID LAKE BUOY  0450   44 35  120/ 10/ 12 1015.2F   1/ 3
DEVILS ISLAND    0500   46      CALM  /  2 1015.1R
PORT WING        0400   42      40/  6/  7 1013.9F
SAXON HARBOR     0430          210/  3/  8 1014.2R
$$

LMZ867-665-643>646-070600-
LAKE MICHIGAN

STATION/POSITION TIME  TEMP    WIND        PRES    WAVE
                       AIR SEA DIR/SP/G            HT/PER
                 (UTC) (F)     (DEG/KT/KT) (MB)    (FT/S)
CHAMBERS ISLAND  0400   52      80/  4/  5 1019.0F
NORTHPORT PIER   0400   49     150/  3/  4 1019.3S
SISTER BAY       0402   50     150/  7/  9   N/A
KEWAUNEE LAKESHO 0400           CALM  /  1   N/A
SHEBOYGAN LAKESH 0500   48      CALM  /  1 1019.5S
PORT WASHINGTON  0400   45     330/  2/  3 1019.6
ATWATER BUOY     0400   44     330/  6/  6 1020.2S
MILWAUKEE LAKESH 0400   45      20/  4/  4   N/A
KENOSHA   LAKESH 0500   45      30/  3/  4 1018.6F
$$

TC  - TEMPERATURE IN CELSIUS
VSB - VISIBILITY IN STATUTE MILES
WCI - WIND CHILL INDEX
HX  - HEAT INDEX



USA.gov is the U.S. government's official web portal to all federal, state and local government web resources and services.